TimeMDT,TemperatureF,Dew PointF,Humidity,Sea Level PressureIn,VisibilityMPH,Wind Direction,Wind SpeedMPH,Gust SpeedMPH,PrecipitationIn,Events,Conditions,WindDirDegrees,DateUTC
12:12 AM,51.8,41.0,67,30.58,10.0,Calm,Calm,-,N/A,,Overcast,0,2013-08-25 06:12:00
12:32 AM,51.8,41.0,67,30.58,10.0,Calm,Calm,-,N/A,,Overcast,0,2013-08-25 06:32:00
12:51 AM,51.8,41.0,67,30.58,10.0,Calm,Calm,-,N/A,,Overcast,0,2013-08-25 06:51:00
1:12 AM,51.8,42.8,71,30.57,10.0,Calm,Calm,-,N/A,,Overcast,0,2013-08-25 07:12:00
1:31 AM,51.8,42.8,71,30.58,10.0,Calm,Calm,-,N/A,,Overcast,0,2013-08-25 07:31:00
1:52 AM,51.8,42.8,71,30.58,10.0,Calm,Calm,-,N/A,,Overcast,0,2013-08-25 07:52:00
2:12 AM,51.8,42.8,71,30.58,10.0,Calm,Calm,-,N/A,,Overcast,0,2013-08-25 08:12:00
2:32 AM,51.8,42.8,71,30.57,10.0,Calm,Calm,-,N/A,,Mostly Cloudy,0,2013-08-25 08:32:00
2:52 AM,51.8,42.8,71,30.57,10.0,Calm,Calm,-,N/A,,Scattered Clouds,0,2013-08-25 08:52:00
3:12 AM,50.0,42.8,76,30.57,10.0,Calm,Calm,-,N/A,,Clear,0,2013-08-25 09:12:00
3:32 AM,50.0,41.0,71,30.57,10.0,Calm,Calm,-,N/A,,Mostly Cloudy,0,2013-08-25 09:32:00
3:52 AM,51.8,42.8,71,30.58,10.0,Calm,Calm,-,N/A,,Mostly Cloudy,0,2013-08-25 09:52:00
4:11 AM,50.0,42.8,76,30.58,10.0,Calm,Calm,-,N/A,,Overcast,0,2013-08-25 10:11:00
4:31 AM,50.0,42.8,76,30.58,10.0,Calm,Calm,-,N/A,,Overcast,0,2013-08-25 10:31:00
4:53 AM,50.0,44.6,82,30.59,10.0,Calm,Calm,-,N/A,Rain,Light Rain,0,2013-08-25 10:53:00
5:13 AM,50.0,44.6,82,30.59,10.0,SSW,3.5,-,N/A,,Overcast,210,2013-08-25 11:13:00
5:33 AM,50.0,44.6,82,30.59,10.0,Calm,Calm,-,N/A,,Overcast,0,2013-08-25 11:33:00
5:53 AM,50.0,44.6,82,30.59,10.0,Calm,Calm,-,N/A,Rain,Light Rain,0,2013-08-25 11:53:00
6:13 AM,48.2,46.4,93,30.59,10.0,Calm,Calm,-,N/A,,Overcast,0,2013-08-25 12:13:00
6:33 AM,50.0,44.6,82,30.60,10.0,Calm,Calm,-,N/A,,Overcast,0,2013-08-25 12:33:00
6:52 AM,50.0,44.6,82,30.60,10.0,Calm,Calm,-,N/A,,Overcast,0,2013-08-25 12:52:00
7:13 AM,50.0,44.6,82,30.60,10.0,Calm,Calm,-,N/A,,Overcast,0,2013-08-25 13:13:00
7:33 AM,50.0,44.6,82,30.61,10.0,Calm,Calm,-,N/A,,Scattered Clouds,0,2013-08-25 13:33:00
7:53 AM,50.0,44.6,82,30.61,10.0,Calm,Calm,-,N/A,,Clear,0,2013-08-25 13:53:00
8:13 AM,50.0,44.6,82,30.60,10.0,SSW,3.5,-,N/A,,Clear,210,2013-08-25 14:13:00
8:33 AM,51.8,44.6,76,30.61,10.0,Calm,Calm,-,N/A,,Clear,0,2013-08-25 14:33:00
8:52 AM,51.8,44.6,76,30.61,10.0,Calm,Calm,-,N/A,,Clear,0,2013-08-25 14:52:00
9:13 AM,53.6,46.4,77,30.61,10.0,Calm,Calm,-,N/A,,Clear,0,2013-08-25 15:13:00
9:33 AM,55.4,46.4,72,30.62,10.0,Calm,Calm,-,N/A,,Scattered Clouds,0,2013-08-25 15:33:00
9:53 AM,55.4,46.4,72,30.63,10.0,Calm,Calm,-,N/A,,Mostly Cloudy,0,2013-08-25 15:53:00
10:13 AM,55.4,46.4,72,30.64,10.0,Calm,Calm,-,N/A,,Overcast,0,2013-08-25 16:13:00
10:33 AM,55.4,46.4,72,30.64,10.0,Calm,Calm,-,N/A,,Overcast,0,2013-08-25 16:33:00
10:53 AM,59.0,46.4,63,30.64,10.0,Calm,Calm,-,N/A,,Overcast,0,2013-08-25 16:53:00
11:13 AM,60.8,48.2,63,30.63,10.0,Calm,Calm,-,N/A,,Scattered Clouds,0,2013-08-25 17:13:00
11:33 AM,59.0,46.4,63,30.64,10.0,Calm,Calm,-,N/A,,Scattered Clouds,0,2013-08-25 17:33:00
11:53 AM,60.8,48.2,63,30.64,10.0,Calm,Calm,-,N/A,,Mostly Cloudy,0,2013-08-25 17:53:00
12:13 PM,60.8,48.2,63,30.64,10.0,Calm,Calm,-,N/A,,Overcast,0,2013-08-25 18:13:00
12:32 PM,59.0,48.2,67,30.63,10.0,Calm,Calm,-,N/A,,Overcast,0,2013-08-25 18:32:00
12:53 PM,59.0,48.2,67,30.63,10.0,Calm,Calm,-,N/A,,Overcast,0,2013-08-25 18:53:00
1:13 PM,55.4,50.0,82,30.63,10.0,Calm,Calm,-,N/A,,Drizzle,0,2013-08-25 19:13:00
1:33 PM,53.6,51.8,94,30.63,7.0,Calm,Calm,-,N/A,Rain,Light Rain,0,2013-08-25 19:33:00
1:53 PM,53.6,51.8,94,30.63,5.0,WSW,3.5,-,N/A,Rain,Light Rain,250,2013-08-25 19:53:00
2:13 PM,55.4,51.8,88,30.63,7.0,WSW,3.5,-,N/A,,Drizzle,250,2013-08-25 20:13:00
2:33 PM,53.6,51.8,94,30.62,0.2,WSW,3.5,-,N/A,Rain,Light Rain,240,2013-08-25 20:33:00
2:53 PM,53.6,51.8,94,30.62,0.2,WSW,3.5,-,N/A,Rain,Light Rain,240,2013-08-25 20:53:00
3:13 PM,51.8,51.8,100,30.62,0.2,West,4.6,-,N/A,,Light Drizzle,260,2013-08-25 21:13:00
3:33 PM,51.8,51.8,100,30.62,0.2,Calm,Calm,-,N/A,,Drizzle,0,2013-08-25 21:33:00
3:53 PM,53.6,51.8,94,30.62,0.2,WSW,3.5,-,N/A,Rain,Light Rain,250,2013-08-25 21:53:00
4:13 PM,53.6,51.8,94,30.61,0.2,Calm,Calm,-,N/A,Rain,Light Rain,0,2013-08-25 22:13:00
4:33 PM,55.4,53.6,94,30.60,10.0,Calm,Calm,-,N/A,,Overcast,0,2013-08-25 22:33:00
4:52 PM,55.4,53.6,94,30.60,10.0,Calm,Calm,-,N/A,,Overcast,0,2013-08-25 22:52:00
5:13 PM,55.4,51.8,88,30.60,10.0,Calm,Calm,-,N/A,,Overcast,0,2013-08-25 23:13:00
5:32 PM,55.4,53.6,94,30.60,5.0,Calm,Calm,-,N/A,,Overcast,0,2013-08-25 23:32:00
5:53 PM,53.6,53.6,100,30.60,1.8,Calm,Calm,-,N/A,,Overcast,0,2013-08-25 23:53:00
6:13 PM,55.4,53.6,94,30.60,7.0,Calm,Calm,-,N/A,,Overcast,0,2013-08-26 00:13:00
6:32 PM,55.4,51.8,88,30.60,10.0,Calm,Calm,-,N/A,,Overcast,0,2013-08-26 00:32:00
6:52 PM,55.4,51.8,88,30.59,10.0,Calm,Calm,-,N/A,,Overcast,0,2013-08-26 00:52:00
7:13 PM,55.4,51.8,88,30.59,10.0,Calm,Calm,-,N/A,,Overcast,0,2013-08-26 01:13:00
7:33 PM,53.6,51.8,94,30.59,10.0,Calm,Calm,-,N/A,,Overcast,0,2013-08-26 01:33:00
7:52 PM,53.6,50.0,88,30.60,10.0,Calm,Calm,-,N/A,,Overcast,0,2013-08-26 01:52:00
8:13 PM,53.6,51.8,94,30.60,7.0,Calm,Calm,-,N/A,Rain,Rain,0,2013-08-26 02:13:00
8:32 PM,51.8,51.8,100,30.60,7.0,Calm,Calm,-,N/A,Rain,Light Rain,0,2013-08-26 02:32:00
8:53 PM,51.8,50.0,94,30.61,10.0,Calm,Calm,-,N/A,,Overcast,0,2013-08-26 02:53:00
9:13 PM,51.8,50.0,94,30.61,10.0,Calm,Calm,-,N/A,,Overcast,0,2013-08-26 03:13:00
9:33 PM,51.8,50.0,94,30.62,10.0,Calm,Calm,-,N/A,,Overcast,0,2013-08-26 03:33:00
9:53 PM,51.8,50.0,94,30.62,10.0,Calm,Calm,-,N/A,,Overcast,0,2013-08-26 03:53:00
10:13 PM,51.8,50.0,94,30.62,10.0,Calm,Calm,-,N/A,,Scattered Clouds,0,2013-08-26 04:13:00
10:33 PM,51.8,50.0,94,30.62,7.0,Calm,Calm,-,N/A,,Scattered Clouds,0,2013-08-26 04:33:00
10:53 PM,51.8,50.0,94,30.62,7.0,Calm,Calm,-,N/A,,Mostly Cloudy,0,2013-08-26 04:53:00
11:12 PM,51.8,50.0,94,30.62,7.0,Calm,Calm,-,N/A,,Overcast,0,2013-08-26 05:12:00
11:33 PM,51.8,50.0,94,30.63,10.0,Calm,Calm,-,N/A,,Light Drizzle,0,2013-08-26 05:33:00
11:53 PM,51.8,50.0,94,30.62,7.0,SSW,4.6,-,N/A,,Overcast,210,2013-08-26 05:53:00